| time (UTC) | temp F | wind direction | speed knots | gust knots | rain 1hr in | rain 24hr in | rain mn in | humidity % | barometer mb |
| 20260506173210 | 48 | 271 | 15.6 | 0.0 | 0.00 | 0.00 | 0.24 | 91 | 1007.7 |
| 20260506170215 | 49 | 256 | 13.9 | 0.0 | 0.00 | 0.00 | 0.24 | 93 | 1007.5 |
| 20260506163210 | 48 | 262 | 13.0 | 0.0 | 0.00 | 0.00 | 0.24 | 93 | 1007.1 |
| 20260506160210 | 48 | 259 | 20.9 | 0.0 | 0.00 | 0.00 | 0.22 | 93 | 1007.3 |
| 20260506153210 | 48 | 239 | 19.1 | 0.0 | 0.00 | 0.00 | 0.21 | 94 | 1007.2 |
| 20260506150210 | 47 | 257 | 27.8 | 0.0 | 0.00 | 0.00 | 0.21 | 94 | 1006.6 |
| 20260506143210 | 48 | 282 | 35.6 | 0.0 | 0.00 | 0.00 | 0.09 | 91 | 1006.8 |
| 20260506140210 | 59 | 261 | 17.4 | 0.0 | 0.00 | 0.00 | 0.02 | 77 | 1004.8 |
| 20260506133211 | 60 | 222 | 9.6 | 0.0 | 0.00 | 0.00 | 0.02 | 80 | 1004.5 |
| 20260506130211 | 57 | 214 | 7.0 | 0.0 | 0.00 | 0.00 | 0.01 | 81 | 1004.2 |
| 20260506123210 | 58 | 225 | 7.0 | 0.0 | 0.00 | 0.00 | 0.01 | 79 | 1004.6 |
| 20260506120210 | 59 | 267 | 9.6 | 0.0 | 0.00 | 0.00 | 0.01 | 77 | 1004.2 |
| 20260506113217 | 60 | 86 | 1.7 | 0.0 | 0.00 | 0.00 | 0.01 | 69 | 1004.0 |
| 20260506110210 | 60 | 201 | 0.9 | 0.0 | 0.00 | 0.00 | 0.01 | 68 | 1004.4 |
| 20260506100213 | 58 | 96 | 6.1 | 0.0 | 0.00 | 0.00 | 0.01 | 75 | 1004.7 |
| 20260506093211 | 56 | 104 | 7.0 | 0.0 | 0.00 | 0.00 | 0.01 | 81 | 1004.8 |
| 20260506090211 | 56 | 242 | 3.5 | 0.0 | 0.00 | 0.00 | 0.01 | 85 | 1005.1 |
| 20260506083211 | 55 | 261 | 3.5 | 0.0 | 0.00 | 0.00 | 0.01 | 80 | 1005.2 |
| 20260506080212 | 54 | 109 | 4.3 | 0.0 | 0.00 | 0.00 | 0.01 | 83 | 1004.8 |
| 20260506073211 | 53 | 265 | 2.6 | 0.0 | 0.00 | 0.00 | 0.01 | 91 | 1005.2 |
| 20260506070212 | 52 | 57 | 1.7 | 0.0 | 0.00 | 0.00 | 0.01 | 93 | 1005.0 |
| 20260506060210 | 49 | 109 | 3.5 | 0.0 | 0.00 | 0.00 | 0.01 | 94 | 1005.4 |
| 20260506050211 | 47 | 59 | 2.6 | 0.0 | 0.00 | 0.00 | 0.01 | 93 | 1005.6 |
| 20260506043211 | 47 | 288 | 0.0 | 0.0 | 0.00 | 0.00 | 0.01 | 93 | 1005.6 |
| 20260506040211 | 47 | 238 | 0.0 | 0.0 | 0.00 | 0.00 | 0.00 | 92 | 1005.9 |
| 20260506033211 | 47 | 238 | 0.0 | 0.0 | 0.00 | 0.00 | 0.00 | 91 | 1006.1 |
| 20260506030212 | 48 | 303 | 1.7 | 0.0 | 0.00 | 0.00 | 0.00 | 91 | 1006.3 |
| 20260506023211 | 48 | 189 | 0.0 | 0.0 | 0.00 | 0.00 | 0.00 | 92 | 1006.7 |
| 20260506020212 | 48 | 189 | 0.0 | 0.0 | 0.00 | 0.00 | 0.00 | 93 | 1006.9 |
| 20260506013211 | 48 | 236 | 1.7 | 0.0 | 0.00 | 0.00 | 0.00 | 93 | 1007.0 |
| 20260506010213 | 48 | 289 | 1.7 | 0.0 | 0.00 | 0.00 | 0.00 | 93 | 1007.1 |
| 20260506003209 | 48 | 200 | 1.7 | 0.0 | 0.00 | 0.00 | 0.00 | 93 | 1007.7 |
| 20260506000211 | 49 | 243 | 1.7 | 0.0 | 0.00 | 0.00 | 0.00 | 92 | 1007.5 |
| 20260505233209 | 49 | 270 | 0.0 | 0.0 | 0.00 | 0.00 | 0.00 | 92 | 1008.0 |
| 20260505230209 | 49 | 282 | 5.2 | 0.0 | 0.00 | 0.00 | 0.00 | 92 | 1007.7 |
| 20260505223210 | 50 | 221 | 0.9 | 0.0 | 0.00 | 0.00 | 0.00 | 93 | 1008.2 |
| 20260505220209 | 50 | 212 | 1.7 | 0.0 | 0.00 | 0.00 | 0.00 | 93 | 1008.1 |
| 20260505213211 | 50 | 277 | 5.2 | 0.0 | 0.00 | 0.00 | 0.07 | 93 | 1008.1 |
| 20260505210215 | 50 | 248 | 0.0 | 0.0 | 0.00 | 0.00 | 0.07 | 93 | 1008.1 |
| 20260505203209 | 51 | 194 | 0.0 | 0.0 | 0.00 | 0.00 | 0.07 | 92 | 1008.3 |
| 20260505200210 | 51 | 182 | 3.5 | 0.0 | 0.00 | 0.00 | 0.07 | 92 | 1008.1 |
| 20260505193209 | 51 | 269 | 12.2 | 0.0 | 0.00 | 0.00 | 0.07 | 91 | 1008.1 |
| 20260505190215 | 52 | 269 | 12.2 | 0.0 | 0.00 | 0.00 | 0.06 | 90 | 1007.9 |
| 20260505183212 | 55 | 277 | 13.9 | 0.0 | 0.00 | 0.00 | 0.01 | 83 | 1007.5 |
| 20260505180211 | 57 | 275 | 9.6 | 0.0 | 0.00 | 0.00 | 0.01 | 82 | 1006.7 |